Regional Weather Roundup
Issued by NWS

Home | Current Version | Previous Version | Text Only | Print | Product List | Glossary Off
Versions: 1 2 3 4 5 6 7 8 9 10 11 12 13 14 15 16 17 18 19 20 21 22 23 24 25 26 27 28 29 30 31 32 33 34 35 36 37 38 39 40 41 42 43 44 45 46 47 48 49 50

540
ASUS44 KMEG 221310
RWRTN
TENNESSEE HOURLY STATE WEATHER ROUNDUP
NATIONAL WEATHER SERVICE MEMPHIS TN
700 AM CST SUN JAN 22 2017

TNZ002-004-019-021-049-052-054-088>092-221400-
WEST TENNESSEE

CITY           SKY/WX    TMP DP  RH WIND       PRES   REMARKS
MEMPHIS INTL   DRIZZLE   55  55 100 E3        29.39F FOG
NWS MEMPHIS      N/A     55 N/A N/A MISG        N/A
JACKSON        CLOUDY    55  55 100 E5        29.42F
DYERSBURG      MOCLDY    54  52  94 NE5       29.41F
UNION CITY     MOCLDY   N/A N/A N/A CALM      29.43F
PARIS          PTCLDY    52  48  87 CALM      29.45F
HUNTINGDON     CLOUDY    54  52  94 E7        29.43F
$$

TNZ008-025-027-028-033-062-065-066-221400-
NORTH MIDDLE TENNESSEE

CITY           SKY/WX    TMP DP  RH WIND       PRES   REMARKS
NASHVILLE      LGT RAIN  54  51  90 N5        29.47R
PORTLAND       CLOUDY    54  52  94 CALM      29.48S
CLARKSVILLE    CLOUDY    53  49  86 CALM      29.47F
SMYRNA         LGT RAIN  54  53  97 NW3       29.47S
GALLATIN       CLOUDY    54  52  94 NE3       29.50S
CROSSVILLE     RAIN      51  50  96 E5        29.48F FOG
$$

TNZ061-075-076-078-094-096-097-221400-
SOUTH MIDDLE TENNESSEE

CITY           SKY/WX    TMP DP  RH WIND       PRES   REMARKS
TULLAHOMA      MOCLDY    52  52 100 SE8       29.47S
WINCHESTER     PTCLDY    52  52 100 S5        29.48F
MCMINNVILLE    CLOUDY    54  54 100 CALM      29.47R VSB 3/4
COLUMBIA       CLOUDY   N/A N/A N/A NW3       29.44R
SHELBYVILLE    CLOUDY    55  55 100 E5        29.46S
$$

TNZ017-018-042-046-047-221400-
NORTHEAST TENNESSEE

CITY           SKY/WX    TMP DP  RH WIND       PRES   REMARKS
TRI CITIES     CLOUDY    50  48  93 NE8       29.55F FOG
ELIZABETHTON   MOCLDY    55  50  82 E9G20     29.54F
$$

TNZ012-013-036-069-073-074-221400-
CENTRAL EAST TENNESSEE

CITY           SKY/WX    TMP DP  RH WIND       PRES   REMARKS
KNOXVILLE      RAIN      52  49  89 NE9       29.47S
OAK RIDGE      RAIN      50  48  93 VRB3      29.50F FOG
GATLINBURG     CLOUDY    48  48 100 CALM      29.47F
MORRISTOWN     CLOUDY    54  52  94 NE6       29.49S
JACKSBORO      CLOUDY    46  46 100 CALM      29.54S
$$

TNZ083-085-099-221400-
SOUTHEAST TENNESSEE

CITY           SKY/WX    TMP DP  RH WIND       PRES   REMARKS
CHATTANOOGA    MOCLDY    58  54  86 S8        29.50R
$$

SKY/WX REPORTED AS FAIR MEANS FEW OR NO CLOUDS BELOW
12 THOUSAND FEET.





USA.gov is the U.S. government's official web portal to all federal, state and local government web resources and services.